This is the latest recevied weather packets stored in our database for station/object SV9TNF-51. If no packets are shown the sender has not sent any weather packets the latest 10 day(s).
| Time | Temp. | Humidity | Pressure | Rain* | Wind** | Luminosity | Snow |
|---|---|---|---|---|---|---|---|
| 1788073333 | 30.56° C | 38% | 1013.2 hPa | 0 mm | 3.13 m/s, 119° | - | - |
| 1788073033 | 30° C | 38% | 1012.5 hPa | 0 mm | 4.92 m/s, 84° | - | - |
| 1788072733 | 31.11° C | 36% | 1012.5 hPa | 0 mm | 2.68 m/s, 123° | - | - |
| 1788072433 | 31.11° C | 37% | 1012.5 hPa | 0 mm | 3.58 m/s, 99° | - | - |
| 1788072133 | 31.11° C | 37% | 1012.5 hPa | 0 mm | 1.79 m/s, 126° | - | - |
| 1788071832 | 31.11° C | 37% | 1012.5 hPa | 0 mm | 0 m/s | - | - |
| 1788071532 | 30.56° C | 36% | 1012.2 hPa | 0 mm | 0.45 m/s, 123° | - | - |
| 1788071232 | 30.56° C | 37% | 1012.2 hPa | 0 mm | 0.89 m/s, 125° | - | - |
| 1788070932 | 30.56° C | 37% | 1011.9 hPa | 0 mm | 0.45 m/s, 124° | - | - |
| 1788070632 | 30° C | 38% | 1011.9 hPa | 0 mm | 1.34 m/s, 123° | - | - |
| 1788070332 | 29.44° C | 39% | 1011.9 hPa | 0 mm | 1.34 m/s, 123° | - | - |
| 1788070032 | 29.44° C | 41% | 1011.9 hPa | 0 mm | 0.89 m/s, 121° | - | - |
| 1788069732 | 28.89° C | 45% | 1011.9 hPa | 0 mm | 0.45 m/s, 129° | - | - |
| 1788069442 | 28.89° C | 45% | 1011.9 hPa | 0 mm | 0.89 m/s, 127° | - | - |
| 1788069131 | 28.33° C | 44% | 1011.9 hPa | 0 mm | 1.34 m/s, 131° | - | - |
| 1788068831 | 27.78° C | 46% | 1012.2 hPa | 0 mm | 0.45 m/s, 126° | - | - |
| 1788068531 | 27.78° C | 48% | 1012.2 hPa | 0 mm | 0.89 m/s, 126° | - | - |
| 1788068231 | 27.22° C | 47% | 1012.2 hPa | 0 mm | 2.24 m/s, 124° | - | - |
| 1788067931 | 26.67° C | 50% | 1012.2 hPa | 0 mm | 1.34 m/s, 126° | - | - |
| 1788067631 | 26.67° C | 53% | 1012.2 hPa | 0 mm | 1.34 m/s, 134° | - | - |
| 1788067331 | 26.11° C | 54% | 1012.5 hPa | 0 mm | 1.79 m/s, 131° | - | - |
| 1788067031 | 25.56° C | 61% | 1012.5 hPa | 0 mm | 0 m/s | - | - |
| 1788066731 | 25.56° C | 63% | 1012.5 hPa | 0 mm | 1.34 m/s, 116° | - | - |
| 1788066431 | 25.56° C | 64% | 1012.5 hPa | 0 mm | 0 m/s | - | - |
| 1788066130 | 25.56° C | 62% | 1012.5 hPa | 0 mm | 1.79 m/s, 129° | - | - |
* Rain latest hour (hover to see other rain measurements)
** Current wind speed in m/s (hover to see current wind gust speed)